| time (UTC) | temp C | wind direction | speed KPH | gust KPH | rain 1hr cm | rain 24hr cm | rain mn cm | humidity % | barometer mb |
| 20260506034259 | 11 | 7 | 8.0 | 9.7 | 0.00 | 0.00 | 0.00 | 62 | 1014.9 |
| 20260506033755 | 11 | 19 | 9.7 | 12.9 | 0.00 | 0.00 | 0.00 | 63 | 1014.7 |
| 20260506033253 | 11 | 150 | 1.6 | 3.2 | 0.00 | 0.00 | 0.00 | 64 | 1014.7 |
| 20260506032750 | 11 | 27 | 6.4 | 11.3 | 0.00 | 0.00 | 0.00 | 65 | 1014.4 |
| 20260506032247 | 11 | 41 | 4.8 | 4.8 | 0.00 | 0.00 | 0.00 | 64 | 1014.2 |
| 20260506031743 | 11 | 346 | 8.0 | 9.7 | 0.00 | 0.00 | 0.00 | 64 | 1014.3 |
| 20260506031241 | 11 | 31 | 6.4 | 11.3 | 0.00 | 0.00 | 0.00 | 64 | 1014.2 |
| 20260506030739 | 11 | 30 | 9.7 | 12.9 | 0.00 | 0.00 | 0.00 | 63 | 1014.1 |
| 20260506030236 | 11 | 25 | 12.9 | 16.1 | 0.00 | 0.00 | 0.00 | 63 | 1014.1 |
| 20260506025733 | 11 | 352 | 9.7 | 11.3 | 0.00 | 0.00 | 0.00 | 63 | 1014.1 |
| 20260506025230 | 11 | 45 | 9.7 | 11.3 | 0.00 | 0.00 | 0.00 | 63 | 1014.1 |
| 20260506024727 | 11 | 284 | 4.8 | 4.8 | 0.00 | 0.00 | 0.00 | 62 | 1014.0 |
| 20260506024223 | 11 | 355 | 14.5 | 20.9 | 0.00 | 0.00 | 0.00 | 61 | 1013.6 |
| 20260506023719 | 12 | 21 | 8.0 | 9.7 | 0.00 | 0.00 | 0.00 | 60 | 1013.6 |
| 20260506023216 | 12 | 319 | 9.7 | 12.9 | 0.00 | 0.00 | 0.00 | 58 | 1013.3 |
| 20260506022713 | 12 | 348 | 12.9 | 12.9 | 0.00 | 0.00 | 0.00 | 56 | 1013.4 |
| 20260506022211 | 13 | 337 | 8.0 | 11.3 | 0.00 | 0.00 | 0.00 | 54 | 1013.3 |
| 20260506021709 | 13 | 263 | 4.8 | 9.7 | 0.00 | 0.00 | 0.00 | 52 | 1012.4 |
| 20260506021205 | 15 | 270 | 14.5 | 16.1 | 0.00 | 0.00 | 0.00 | 50 | 1012.7 |
| 20260506020702 | 15 | 192 | 0.0 | 0.0 | 0.00 | 0.00 | 0.00 | 49 | 1012.2 |
| 20260506020200 | 15 | 193 | 0.0 | 1.6 | 0.00 | 0.00 | 0.00 | 49 | 1012.1 |
| 20260506015657 | 15 | 191 | 3.2 | 3.2 | 0.00 | 0.00 | 0.00 | 48 | 1011.9 |
| 20260506015155 | 15 | 202 | 4.8 | 4.8 | 0.00 | 0.00 | 0.00 | 47 | 1011.5 |
| 20260506014652 | 15 | 199 | 6.4 | 6.4 | 0.00 | 0.00 | 0.00 | 47 | 1011.5 |
| 20260506014148 | 15 | 176 | 11.3 | 11.3 | 0.00 | 0.00 | 0.00 | 47 | 1011.4 |
| 20260506013646 | 15 | 213 | 8.0 | 11.3 | 0.00 | 0.00 | 0.00 | 47 | 1011.2 |
| 20260506013143 | 15 | 219 | 9.7 | 11.3 | 0.00 | 0.00 | 0.00 | 46 | 1011.0 |
| 20260506012639 | 16 | 206 | 6.4 | 6.4 | 0.00 | 0.00 | 0.00 | 45 | 1011.3 |
| 20260506012136 | 16 | 221 | 11.3 | 14.5 | 0.00 | 0.00 | 0.00 | 45 | 1011.4 |
| 20260506011634 | 16 | 222 | 11.3 | 12.9 | 0.00 | 0.00 | 0.00 | 44 | 1011.3 |
| 20260506011130 | 16 | 180 | 8.0 | 9.7 | 0.00 | 0.00 | 0.00 | 44 | 1011.2 |
| 20260506010628 | 16 | 186 | 0.0 | 1.6 | 0.00 | 0.00 | 0.00 | 43 | 1011.2 |
| 20260506010125 | 16 | 208 | 3.2 | 3.2 | 0.00 | 0.00 | 0.00 | 45 | 1011.0 |
| 20260506005621 | 16 | 190 | 3.2 | 4.8 | 0.00 | 0.00 | 0.00 | 43 | 1010.9 |
| 20260506005118 | 16 | 201 | 0.0 | 0.0 | 0.00 | 0.00 | 0.00 | 44 | 1011.2 |
| 20260506004615 | 16 | 213 | 4.8 | 4.8 | 0.00 | 0.00 | 0.00 | 45 | 1011.5 |
| 20260506004112 | 16 | 176 | 1.6 | 3.2 | 0.00 | 0.00 | 0.00 | 43 | 1011.4 |
| 20260506003608 | 16 | 214 | 1.6 | 3.2 | 0.00 | 0.00 | 0.00 | 42 | 1011.2 |
| 20260506003104 | 16 | 192 | 3.2 | 3.2 | 0.00 | 0.00 | 0.00 | 42 | 1011.3 |
| 20260506002600 | 16 | 214 | 9.7 | 11.3 | 0.00 | 0.00 | 0.00 | 44 | 1011.3 |
| 20260506002056 | 16 | 152 | 6.4 | 9.7 | 0.00 | 0.00 | 0.00 | 47 | 1011.3 |
| 20260506001552 | 16 | 191 | 1.6 | 1.6 | 0.00 | 0.00 | 0.00 | 46 | 1011.0 |
| 20260506001050 | 16 | 174 | 4.8 | 6.4 | 0.00 | 0.00 | 0.00 | 46 | 1010.9 |
| 20260506000547 | 16 | 182 | 6.4 | 9.7 | 0.00 | 0.00 | 0.00 | 46 | 1010.9 |
| 20260506000044 | 16 | 179 | 8.0 | 9.7 | 0.00 | 0.00 | 0.00 | 47 | 1010.9 |
| 20260505235542 | 16 | 171 | 4.8 | 4.8 | 0.00 | 0.00 | 0.00 | 47 | 1010.8 |
| 20260505235039 | 17 | 178 | 3.2 | 4.8 | 0.00 | 0.00 | 0.00 | 46 | 1011.2 |
| 20260505234536 | 17 | 179 | 3.2 | 3.2 | 0.00 | 0.00 | 0.00 | 44 | 1010.7 |
| 20260505234033 | 17 | 150 | 4.8 | 6.4 | 0.00 | 0.00 | 0.00 | 45 | 1011.2 |
| 20260505233530 | 16 | 189 | 0.0 | 0.0 | 0.00 | 0.00 | 0.00 | 47 | 1010.9 |
| 20260505233028 | 16 | 95 | 6.4 | 11.3 | 0.00 | 0.00 | 0.00 | 46 | 1010.9 |
| 20260505232525 | 17 | 114 | 3.2 | 4.8 | 0.00 | 0.00 | 0.00 | 47 | 1011.3 |
| 20260505232023 | 16 | 162 | 3.2 | 4.8 | 0.00 | 0.00 | 0.00 | 48 | 1011.0 |
| 20260505231519 | 16 | 191 | 11.3 | 12.9 | 0.00 | 0.00 | 0.00 | 48 | 1011.2 |
| 20260505231018 | 17 | 198 | 11.3 | 12.9 | 0.00 | 0.00 | 0.00 | 46 | 1011.0 |
| 20260505230515 | 16 | 73 | 3.2 | 4.8 | 0.00 | 0.00 | 0.00 | 46 | 1011.5 |
| 20260505230012 | 17 | 180 | 3.2 | 4.8 | 0.00 | 0.00 | 0.00 | 43 | 1011.4 |
| 20260505225509 | 16 | 171 | 1.6 | 1.6 | 0.00 | 0.00 | 0.00 | 43 | 1011.4 |
| 20260505225004 | 17 | 328 | 8.0 | 9.7 | 0.00 | 0.00 | 0.00 | 42 | 1011.2 |
| 20260505224502 | 17 | 204 | 3.2 | 3.2 | 0.00 | 0.00 | 0.00 | 41 | 1011.4 |
| 20260505223959 | 17 | 192 | 3.2 | 3.2 | 0.00 | 0.00 | 0.00 | 40 | 1011.4 |
| 20260505223455 | 16 | 213 | 0.0 | 0.0 | 0.00 | 0.00 | 0.00 | 45 | 1011.5 |
| 20260505222952 | 16 | 185 | 12.9 | 16.1 | 0.00 | 0.00 | 0.00 | 44 | 1011.7 |
| 20260505222448 | 15 | 154 | 6.4 | 9.7 | 0.00 | 0.00 | 0.00 | 54 | 1011.9 |
| 20260505221944 | 15 | 164 | 14.5 | 17.7 | 0.00 | 0.00 | 0.00 | 53 | 1012.1 |
| 20260505221442 | 15 | 171 | 9.7 | 14.5 | 0.00 | 0.00 | 0.00 | 52 | 1012.1 |
| 20260505220939 | 15 | 189 | 11.3 | 12.9 | 0.00 | 0.00 | 0.00 | 53 | 1012.1 |
| 20260505220436 | 15 | 211 | 9.7 | 12.9 | 0.00 | 0.00 | 0.00 | 52 | 1012.1 |
| 20260505215933 | 15 | 202 | 14.5 | 24.1 | 0.00 | 0.00 | 0.00 | 58 | 1012.4 |
| 20260505215431 | 15 | 231 | 19.3 | 24.1 | 0.00 | 0.00 | 0.00 | 51 | 1012.8 |
| 20260505214929 | 15 | 238 | 12.9 | 16.1 | 0.00 | 0.00 | 0.00 | 54 | 1012.4 |
| 20260505214426 | 15 | 191 | 0.0 | 0.0 | 0.00 | 0.00 | 0.00 | 52 | 1012.7 |
| 20260505213923 | 16 | 235 | 1.6 | 3.2 | 0.00 | 0.00 | 0.00 | 51 | 1012.4 |
| 20260505213421 | 16 | 198 | 1.6 | 1.6 | 0.00 | 0.00 | 0.00 | 49 | 1012.6 |
| 20260505212917 | 17 | 199 | 1.6 | 3.2 | 0.00 | 0.00 | 0.00 | 44 | 1012.4 |
| 20260505212414 | 17 | 136 | 0.0 | 0.0 | 0.00 | 0.00 | 0.00 | 42 | 1012.4 |
| 20260505211910 | 17 | 195 | 0.0 | 0.0 | 0.00 | 0.00 | 0.00 | 42 | 1012.3 |
| 20260505211408 | 17 | 49 | 4.8 | 4.8 | 0.00 | 0.00 | 0.00 | 42 | 1012.6 |
| 20260505210904 | 17 | 254 | 1.6 | 1.6 | 0.00 | 0.00 | 0.00 | 41 | 1012.4 |
| 20260505210401 | 16 | 203 | 3.2 | 3.2 | 0.00 | 0.00 | 0.00 | 43 | 1012.6 |
| 20260505205858 | 16 | 185 | 6.4 | 6.4 | 0.00 | 0.00 | 0.00 | 43 | 1012.6 |
| 20260505205356 | 16 | 192 | 8.0 | 9.7 | 0.00 | 0.00 | 0.00 | 43 | 1012.7 |
| 20260505204853 | 17 | 45 | 3.2 | 4.8 | 0.00 | 0.00 | 0.00 | 41 | 1012.6 |
| 20260505204351 | 17 | 198 | 3.2 | 3.2 | 0.00 | 0.00 | 0.00 | 41 | 1012.7 |
| 20260505203848 | 18 | 320 | 4.8 | 4.8 | 0.00 | 0.00 | 0.00 | 39 | 1012.8 |
| 20260505203344 | 17 | 220 | 3.2 | 3.2 | 0.00 | 0.00 | 0.00 | 43 | 1012.8 |
| 20260505202841 | 17 | 66 | 3.2 | 3.2 | 0.00 | 0.00 | 0.00 | 43 | 1013.0 |
| 20260505202337 | 17 | 135 | 3.2 | 4.8 | 0.00 | 0.00 | 0.00 | 43 | 1013.0 |
| 20260505201834 | 15 | 236 | 1.6 | 3.2 | 0.00 | 0.00 | 0.00 | 48 | 1012.9 |
| 20260505201331 | 17 | 290 | 3.2 | 4.8 | 0.00 | 0.00 | 0.00 | 46 | 1013.0 |
| 20260505200829 | 16 | 355 | 4.8 | 4.8 | 0.00 | 0.00 | 0.00 | 47 | 1012.8 |
| 20260505200326 | 16 | 142 | 0.0 | 0.0 | 0.00 | 0.00 | 0.00 | 48 | 1012.8 |
| 20260505195821 | 15 | 9 | 8.0 | 9.7 | 0.00 | 0.00 | 0.00 | 49 | 1013.3 |
| 20260505195319 | 15 | 225 | 1.6 | 1.6 | 0.00 | 0.00 | 0.00 | 50 | 1013.5 |
| 20260505194816 | 15 | 200 | 1.6 | 1.6 | 0.00 | 0.00 | 0.00 | 50 | 1013.5 |
| 20260505194313 | 15 | 169 | 0.0 | 0.0 | 0.00 | 0.00 | 0.00 | 48 | 1013.5 |
| 20260505193808 | 16 | 221 | 3.2 | 4.8 | 0.00 | 0.00 | 0.00 | 48 | 1013.4 |
| 20260505193306 | 15 | 194 | 3.2 | 4.8 | 0.00 | 0.00 | 0.00 | 51 | 1013.6 |
| 20260505192804 | 16 | 215 | 1.6 | 3.2 | 0.00 | 0.00 | 0.00 | 47 | 1013.4 |
| 20260505192305 | 15 | 229 | 3.2 | 4.8 | 0.00 | 0.00 | 0.00 | 53 | 1013.4 |
| 20260505191759 | 15 | 206 | 11.3 | 11.3 | 0.00 | 0.00 | 0.00 | 51 | 1013.7 |
| 20260505191258 | 15 | 204 | 8.0 | 11.3 | 0.00 | 0.00 | 0.00 | 56 | 1013.7 |
| 20260505190754 | 14 | 207 | 11.3 | 12.9 | 0.00 | 0.00 | 0.00 | 59 | 1013.6 |
| 20260505190249 | 14 | 195 | 12.9 | 16.1 | 0.00 | 0.00 | 0.00 | 60 | 1013.7 |
| 20260505185746 | 13 | 182 | 12.9 | 16.1 | 0.00 | 0.00 | 0.00 | 60 | 1013.6 |
| 20260505185242 | 13 | 146 | 16.1 | 20.9 | 0.00 | 0.00 | 0.00 | 61 | 1013.5 |
| 20260505184738 | 13 | 192 | 16.1 | 20.9 | 0.00 | 0.00 | 0.00 | 62 | 1013.6 |
| 20260505184236 | 14 | 140 | 12.9 | 14.5 | 0.00 | 0.00 | 0.00 | 55 | 1013.7 |
| 20260505183732 | 15 | 180 | 17.7 | 24.1 | 0.00 | 0.00 | 0.00 | 48 | 1013.6 |
| 20260505183230 | 15 | 214 | 12.9 | 16.1 | 0.00 | 0.00 | 0.00 | 45 | 1013.7 |
| 20260505182726 | 15 | 214 | 9.7 | 12.9 | 0.00 | 0.00 | 0.00 | 46 | 1013.4 |
| 20260505182223 | 16 | 192 | 16.1 | 17.7 | 0.00 | 0.00 | 0.00 | 46 | 1013.6 |
| 20260505181719 | 15 | 145 | 9.7 | 11.3 | 0.00 | 0.00 | 0.00 | 45 | 1013.4 |
| 20260505181217 | 16 | 192 | 1.6 | 3.2 | 0.00 | 0.00 | 0.00 | 42 | 1013.7 |
| 20260505180713 | 15 | 217 | 12.9 | 14.5 | 0.00 | 0.00 | 0.00 | 43 | 1013.5 |
| 20260505180210 | 16 | 197 | 9.7 | 12.9 | 0.00 | 0.00 | 0.00 | 42 | 1013.6 |
| 20260505175706 | 16 | 215 | 1.6 | 1.6 | 0.00 | 0.00 | 0.00 | 41 | 1013.3 |
| 20260505175203 | 17 | 166 | 3.2 | 3.2 | 0.00 | 0.00 | 0.00 | 38 | 1013.5 |
| 20260505174659 | 16 | 207 | 4.8 | 4.8 | 0.00 | 0.00 | 0.00 | 39 | 1013.5 |
| 20260505174155 | 17 | 169 | 3.2 | 4.8 | 0.00 | 0.00 | 0.00 | 39 | 1013.6 |
| 20260505173652 | 16 | 263 | 9.7 | 12.9 | 0.00 | 0.00 | 0.00 | 40 | 1013.5 |
| 20260505173149 | 16 | 157 | 6.4 | 9.7 | 0.00 | 0.00 | 0.00 | 40 | 1013.5 |
| 20260505172646 | 16 | 291 | 3.2 | 4.8 | 0.00 | 0.00 | 0.00 | 41 | 1013.6 |
| 20260505172143 | 16 | 194 | 1.6 | 1.6 | 0.00 | 0.00 | 0.00 | 40 | 1013.4 |
| 20260505171643 | 16 | 185 | 1.6 | 1.6 | 0.00 | 0.00 | 0.00 | 40 | 1013.5 |
| 20260505171140 | 16 | 177 | 1.6 | 3.2 | 0.00 | 0.00 | 0.00 | 40 | 1013.7 |
| 20260505170637 | 15 | 186 | 0.0 | 0.0 | 0.00 | 0.00 | 0.00 | 42 | 1013.8 |
| 20260505170134 | 16 | 263 | 6.4 | 9.7 | 0.00 | 0.00 | 0.00 | 42 | 1013.7 |
| 20260505165629 | 15 | 205 | 1.6 | 3.2 | 0.00 | 0.00 | 0.00 | 41 | 1013.8 |
| 20260505165126 | 15 | 283 | 3.2 | 4.8 | 0.00 | 0.00 | 0.00 | 43 | 1013.8 |
| 20260505164621 | 14 | 334 | 4.8 | 4.8 | 0.00 | 0.00 | 0.00 | 44 | 1013.7 |
| 20260505164119 | 15 | 253 | 4.8 | 4.8 | 0.00 | 0.00 | 0.00 | 43 | 1013.7 |
| 20260505163617 | 14 | 228 | 1.6 | 1.6 | 0.00 | 0.00 | 0.00 | 44 | 1013.8 |
| 20260505163114 | 14 | 240 | 4.8 | 9.7 | 0.00 | 0.00 | 0.00 | 45 | 1013.7 |
| 20260505162612 | 13 | 33 | 4.8 | 4.8 | 0.00 | 0.00 | 0.00 | 46 | 1013.7 |
| 20260505162109 | 13 | 108 | 1.6 | 1.6 | 0.00 | 0.00 | 0.00 | 48 | 1014.0 |
| 20260505161606 | 13 | 277 | 4.8 | 6.4 | 0.00 | 0.00 | 0.00 | 49 | 1014.2 |
| 20260505161103 | 12 | 189 | 3.2 | 3.2 | 0.00 | 0.00 | 0.00 | 51 | 1014.3 |
| 20260505160601 | 12 | 27 | 8.0 | 11.3 | 0.00 | 0.00 | 0.00 | 52 | 1014.3 |
| 20260505153038 | 12 | 195 | 4.8 | 9.7 | 0.00 | 0.00 | 0.00 | 55 | 1014.5 |
| 20260505152534 | 13 | 10 | 6.4 | 6.4 | 0.00 | 0.00 | 0.00 | 56 | 1015.0 |
| 20260505152030 | 13 | 203 | 4.8 | 4.8 | 0.00 | 0.00 | 0.00 | 57 | 1014.8 |
| 20260505151530 | 12 | 326 | 3.2 | 4.8 | 0.00 | 0.00 | 0.00 | 58 | 1014.8 |
| 20260505151028 | 12 | 2 | 3.2 | 4.8 | 0.00 | 0.00 | 0.00 | 57 | 1014.7 |
| 20260505150524 | 12 | 175 | 4.8 | 4.8 | 0.00 | 0.00 | 0.00 | 58 | 1014.7 |
| 20260505140449 | 13 | 71 | 3.2 | 3.2 | 0.00 | 0.00 | 0.00 | 53 | 1014.8 |
| 20260505124903 | 15 | 192 | 0.0 | 1.6 | 0.00 | 0.00 | 0.00 | 40 | 1013.4 |
| 20260505124400 | 15 | 189 | 0.0 | 0.0 | 0.00 | 0.00 | 0.00 | 39 | 1013.3 |
| 20260505123856 | 15 | 205 | 0.0 | 1.6 | 0.00 | 0.00 | 0.00 | 39 | 1013.4 |
| 20260505123353 | 15 | 210 | 3.2 | 3.2 | 0.00 | 0.00 | 0.00 | 38 | 1013.6 |
| 20260505122848 | 15 | 186 | 0.0 | 0.0 | 0.00 | 0.00 | 0.00 | 38 | 1013.6 |
| 20260505122346 | 15 | 185 | 0.0 | 1.6 | 0.00 | 0.00 | 0.00 | 38 | 1013.6 |
| 20260505121843 | 15 | 216 | 6.4 | 6.4 | 0.00 | 0.00 | 0.00 | 37 | 1013.6 |
| 20260505121340 | 15 | 222 | 9.7 | 11.3 | 0.00 | 0.00 | 0.00 | 37 | 1013.7 |
| 20260505120836 | 15 | 211 | 4.8 | 4.8 | 0.00 | 0.00 | 0.00 | 37 | 1013.6 |
| 20260505120332 | 15 | 220 | 3.2 | 4.8 | 0.00 | 0.00 | 0.00 | 37 | 1013.6 |
| 20260505115831 | 15 | 193 | 0.0 | 0.0 | 0.00 | 0.00 | 0.00 | 37 | 1013.4 |
| 20260505115328 | 15 | 221 | 3.2 | 3.2 | 0.00 | 0.00 | 0.00 | 36 | 1013.5 |
| 20260505114826 | 14 | 266 | 1.6 | 3.2 | 0.00 | 0.00 | 0.00 | 37 | 1013.5 |
| 20260505114322 | 14 | 183 | 0.0 | 0.0 | 0.00 | 0.00 | 0.00 | 37 | 1013.3 |
| 20260505113819 | 15 | 174 | 0.0 | 0.0 | 0.00 | 0.00 | 0.00 | 36 | 1013.3 |
| 20260505113315 | 15 | 203 | 0.0 | 1.6 | 0.00 | 0.00 | 0.00 | 35 | 1013.3 |
| 20260505112811 | 15 | 178 | 0.0 | 0.0 | 0.00 | 0.00 | 0.00 | 36 | 1013.5 |
| 20260505112308 | 15 | 164 | 0.0 | 0.0 | 0.00 | 0.00 | 0.00 | 35 | 1013.3 |
| 20260505111804 | 15 | 159 | 0.0 | 1.6 | 0.00 | 0.00 | 0.00 | 34 | 1013.3 |
| 20260505111300 | 15 | 182 | 0.0 | 0.0 | 0.00 | 0.00 | 0.00 | 34 | 1013.4 |
| 20260505110755 | 15 | 184 | 0.0 | 0.0 | 0.00 | 0.00 | 0.00 | 34 | 1013.1 |
| 20260505110254 | 15 | 196 | 1.6 | 1.6 | 0.00 | 0.00 | 0.00 | 34 | 1013.5 |
| 20260505101727 | 15 | 195 | 3.2 | 3.2 | 0.00 | 0.00 | 0.00 | 32 | 1013.4 |
| 20260505101223 | 15 | 191 | 0.0 | 0.0 | 0.00 | 0.00 | 0.00 | 33 | 1013.4 |
| 20260505100720 | 15 | 191 | 0.0 | 0.0 | 0.00 | 0.00 | 0.00 | 32 | 1013.1 |
| 20260505100217 | 16 | 189 | 0.0 | 0.0 | 0.00 | 0.00 | 0.00 | 32 | 1013.1 |
| 20260505095712 | 16 | 198 | 0.0 | 0.0 | 0.00 | 0.00 | 0.00 | 32 | 1013.0 |
| 20260505095211 | 15 | 206 | 3.2 | 4.8 | 0.00 | 0.00 | 0.00 | 31 | 1012.9 |
| 20260505094706 | 15 | 204 | 0.0 | 1.6 | 0.00 | 0.00 | 0.00 | 32 | 1013.1 |
| 20260505094202 | 16 | 193 | 0.0 | 0.0 | 0.00 | 0.00 | 0.00 | 32 | 1013.3 |
| 20260505093659 | 16 | 187 | 0.0 | 0.0 | 0.00 | 0.00 | 0.00 | 31 | 1013.1 |
| 20260505093156 | 16 | 197 | 0.0 | 0.0 | 0.00 | 0.00 | 0.00 | 32 | 1013.0 |
| 20260505092653 | 16 | 198 | 0.0 | 0.0 | 0.00 | 0.00 | 0.00 | 31 | 1013.0 |
| 20260505092152 | 16 | 183 | 0.0 | 0.0 | 0.00 | 0.00 | 0.00 | 31 | 1013.0 |
| 20260505091648 | 16 | 200 | 3.2 | 4.8 | 0.00 | 0.00 | 0.00 | 30 | 1013.3 |
| 20260505091146 | 16 | 198 | 1.6 | 1.6 | 0.00 | 0.00 | 0.00 | 30 | 1013.3 |
| 20260505090644 | 16 | 195 | 0.0 | 0.0 | 0.00 | 0.00 | 0.00 | 31 | 1013.4 |
| 20260505090142 | 16 | 193 | 0.0 | 0.0 | 0.00 | 0.00 | 0.00 | 32 | 1013.4 |
| 20260505085639 | 16 | 181 | 0.0 | 0.0 | 0.00 | 0.00 | 0.00 | 32 | 1013.7 |
| 20260505085137 | 16 | 151 | 0.0 | 0.0 | 0.00 | 0.00 | 0.00 | 31 | 1013.5 |
| 20260505084634 | 16 | 33 | 1.6 | 3.2 | 0.00 | 0.00 | 0.00 | 31 | 1013.6 |
| 20260505084133 | 16 | 46 | 3.2 | 3.2 | 0.00 | 0.00 | 0.00 | 30 | 1013.8 |
| 20260505083630 | 16 | 160 | 0.0 | 0.0 | 0.00 | 0.00 | 0.00 | 31 | 1013.5 |
| 20260505083126 | 16 | 203 | 1.6 | 1.6 | 0.00 | 0.00 | 0.00 | 31 | 1014.0 |
| 20260505082622 | 16 | 195 | 0.0 | 1.6 | 0.00 | 0.00 | 0.00 | 30 | 1013.8 |
| 20260505082119 | 16 | 231 | 4.8 | 4.8 | 0.00 | 0.00 | 0.00 | 30 | 1013.7 |
| 20260505081615 | 16 | 212 | 0.0 | 0.0 | 0.00 | 0.00 | 0.00 | 30 | 1013.8 |
| 20260505081113 | 17 | 229 | 3.2 | 4.8 | 0.00 | 0.00 | 0.00 | 30 | 1013.8 |
| 20260505080609 | 16 | 208 | 1.6 | 1.6 | 0.00 | 0.00 | 0.00 | 30 | 1013.8 |
| 20260505080106 | 17 | 188 | 3.2 | 3.2 | 0.00 | 0.00 | 0.00 | 30 | 1014.0 |
| 20260505075601 | 17 | 202 | 3.2 | 6.4 | 0.00 | 0.00 | 0.00 | 30 | 1014.0 |
| 20260505075059 | 17 | 190 | 6.4 | 6.4 | 0.00 | 0.00 | 0.00 | 30 | 1013.8 |
| 20260505074555 | 17 | 235 | 3.2 | 3.2 | 0.00 | 0.00 | 0.00 | 30 | 1013.8 |
| 20260505074053 | 17 | 202 | 1.6 | 1.6 | 0.00 | 0.00 | 0.00 | 30 | 1014.1 |
| 20260505073550 | 17 | 303 | 0.0 | 1.6 | 0.00 | 0.00 | 0.00 | 29 | 1014.2 |
| 20260505073049 | 17 | 269 | 6.4 | 9.7 | 0.00 | 0.00 | 0.00 | 29 | 1014.0 |
| 20260505072544 | 17 | 240 | 11.3 | 14.5 | 0.00 | 0.00 | 0.00 | 29 | 1013.8 |
| 20260505072040 | 17 | 214 | 12.9 | 16.1 | 0.00 | 0.00 | 0.00 | 29 | 1013.7 |
| 20260505071536 | 17 | 295 | 4.8 | 6.4 | 0.00 | 0.00 | 0.00 | 29 | 1013.4 |
| 20260505071034 | 17 | 255 | 11.3 | 17.7 | 0.00 | 0.00 | 0.00 | 29 | 1013.4 |
| 20260505070531 | 18 | 244 | 12.9 | 16.1 | 0.00 | 0.00 | 0.00 | 28 | 1013.1 |
| 20260505070027 | 18 | 262 | 6.4 | 9.7 | 0.00 | 0.00 | 0.00 | 28 | 1013.3 |
| 20260505065523 | 18 | 190 | 9.7 | 14.5 | 0.00 | 0.00 | 0.00 | 28 | 1013.4 |
| 20260505065020 | 18 | 249 | 9.7 | 11.3 | 0.00 | 0.00 | 0.00 | 27 | 1013.1 |
| 20260505064517 | 18 | 205 | 11.3 | 14.5 | 0.00 | 0.00 | 0.00 | 27 | 1013.1 |
| 20260505064015 | 18 | 280 | 14.5 | 20.9 | 0.00 | 0.00 | 0.00 | 27 | 1013.1 |
| 20260505063512 | 18 | 194 | 9.7 | 11.3 | 0.00 | 0.00 | 0.00 | 26 | 1013.0 |
| 20260505063008 | 18 | 228 | 3.2 | 4.8 | 0.00 | 0.00 | 0.00 | 26 | 1013.0 |
| 20260505062505 | 18 | 211 | 3.2 | 3.2 | 0.00 | 0.00 | 0.00 | 26 | 1013.3 |
| 20260505062002 | 18 | 279 | 3.2 | 4.8 | 0.00 | 0.00 | 0.00 | 26 | 1013.0 |
| 20260505061500 | 18 | 228 | 6.4 | 9.7 | 0.00 | 0.00 | 0.00 | 25 | 1013.3 |
| 20260505060957 | 18 | 220 | 6.4 | 6.4 | 0.00 | 0.00 | 0.00 | 25 | 1013.4 |
| 20260505060454 | 18 | 219 | 9.7 | 12.9 | 0.00 | 0.00 | 0.00 | 25 | 1013.1 |
| 20260505055950 | 18 | 273 | 9.7 | 11.3 | 0.00 | 0.00 | 0.00 | 24 | 1013.1 |
| 20260505055446 | 18 | 204 | 3.2 | 3.2 | 0.00 | 0.00 | 0.00 | 24 | 1013.1 |
| 20260505054943 | 18 | 101 | 4.8 | 4.8 | 0.00 | 0.00 | 0.00 | 24 | 1013.3 |
| 20260505054441 | 18 | 238 | 3.2 | 3.2 | 0.00 | 0.00 | 0.00 | 24 | 1013.1 |
| 20260505053939 | 19 | 195 | 4.8 | 4.8 | 0.00 | 0.00 | 0.00 | 24 | 1013.1 |
| 20260505053435 | 19 | 212 | 4.8 | 9.7 | 0.00 | 0.00 | 0.00 | 23 | 1013.1 |
| 20260505052932 | 19 | 220 | 4.8 | 6.4 | 0.00 | 0.00 | 0.00 | 23 | 1013.1 |
| 20260505052429 | 19 | 226 | 3.2 | 4.8 | 0.00 | 0.00 | 0.00 | 24 | 1012.9 |
| 20260505051926 | 19 | 199 | 4.8 | 6.4 | 0.00 | 0.00 | 0.00 | 23 | 1012.9 |
| 20260505051423 | 19 | 204 | 1.6 | 3.2 | 0.00 | 0.00 | 0.00 | 23 | 1013.0 |
| 20260505050921 | 19 | 215 | 1.6 | 3.2 | 0.00 | 0.00 | 0.00 | 24 | 1013.0 |
| 20260505050420 | 20 | 198 | 6.4 | 9.7 | 0.00 | 0.00 | 0.00 | 23 | 1012.7 |
| 20260505041347 | 20 | 193 | 0.0 | 0.0 | 0.00 | 0.00 | 0.00 | 23 | 1012.7 |
| 20260505040844 | 20 | 206 | 3.2 | 3.2 | 0.00 | 0.00 | 0.00 | 23 | 1012.9 |
| 20260505040342 | 20 | 194 | 0.0 | 0.0 | 0.00 | 0.00 | 0.00 | 23 | 1012.9 |
| 20260505035838 | 20 | 230 | 0.0 | 1.6 | 0.00 | 0.00 | 0.00 | 23 | 1012.7 |
| 20260505035334 | 20 | 177 | 0.0 | 0.0 | 0.00 | 0.00 | 0.00 | 23 | 1012.7 |
| 20260505034832 | 20 | 194 | 0.0 | 0.0 | 0.00 | 0.00 | 0.00 | 23 | 1012.8 |